ONEWEB-0303 (49187 NORAD) Tracking and Keplerian Element Data

This shows tracking and keplerian element data for the satellite.

Feedback or suggestion? Click here.




ElementValue
Catalog49187
NameONEWEB-0303
Epoch Orbit775
Epoch Day300.83334491
Epoch Year2021
RAAN314.0425
Inclination87.5825
Eccentricity0.0019613
Argument of Perigee152.0015
Mean Anonmoly217.4426
Mean Motion14.51951603
Decay Rate-0.0138527
L11 49187U 21083B 21300.83334491 -.01385270 00000-0 -37110+0 0 9993
L22 49187 87.5825 314.0425 0019613 152.0015 217.4426 14.51951603 7759

Live tracking and technical data element details for ONEWEB-0303 (NORAD 49187). ONEWEB-0303 can be tracked NOW for your location showing map with azimuth and elevation plus other details from your city location.

Track the satellite on the map from your city or location and see movement details for azimuth, elevation, latitude, longitude, range, height, and movement on the map or in text.







IsCatalogInMostPopularTable: catalog: 49187, numindb: 15
Update: records affected: 1



GetName: 49187 ONEWEB-0303

Hit Count: updated at: Thu, 28 Oct 2021 11:33:01 GMT